{"data":{"norad_id":55011,"epoch":"2026-09-21T22:52:22.744128Z","epoch_age_seconds":40053,"freshness":"FRESH","line1":"1 55011U 23001C   26264.95304102  .00031536  00000+0  46819-3 0  9990","line2":"2 55011  97.3094 331.8818 0006632 123.1578 237.0313 15.55125202207211","mean_motion":15.55125202,"eccentricity":0.0006632,"inclination_deg":97.3094,"raan_deg":331.8818,"arg_perigee_deg":123.1578,"mean_anomaly_deg":237.0313,"bstar":0.00046819,"rev_number":20721,"period_min":92.597046086583,"perigee_km":397.29226029704,"apogee_km":406.28515375484,"semimajor_km":6779.9257070259,"source":"CELESTRAK","updated_at":"2026-09-22T09:00:25.264443Z"}}